DELTA 1 DEB, 13535

Orbit data source: Space-Track

DELTA 1 DEB, 13535 is space debris in SSO originally from a launch on Thu, 29 Jul 1976 UTC launched from the Air Force Western Test Range (AFWTR). Debris objects in space refer to the collection of defunct objects orbiting the Earth. Examples of debris include non-operational satellites, rocket bodies, and fragments generated from explosions, collisions, or faulty payload assembly.

Loading next visibility...
Identifier
13535, 1976-077EH
Orbit
SSO
Country
Flag of USUS
Related business
Manufacturer
Unknown
Mission
Spacecraft
Bus & Motor
Unknown
Mass
Unknown
Launch date (UTC)
1976-07-29 (50 years ago)
Launch vehicle
Unknown
Launch site
Air Force Western Test Range (AFWTR)
Object type
Payload
Rocket body
Debris
Shape & HBR
Unknown shape, 0.2 m
Radar Cross Section
Medium (>0.1 m² and <1 m²)

Expand to show TLE details & history
Last TLE update: 2 days ago

TLE from 2 days ago
0 DELTA 1 DEB
1 13535U 76077EH  26171.41436394 -.00000022  00000-0  15896-3 0  9992
2 13535 101.7659 143.3360 0022663 262.0042 252.3294 12.39104619149190
Epoch: 2026-06-20T09:56Z
TLE epoch observation values (Epoch: 2026-06-20T09:56:41.044Z)
Latitude
25.36008°
Longitude
-88.8263°
Altitude
1,518.626 km
Speed
7.106 km/s
True Right ascension
21h 55m 53s
True Declination
25° 14' 24"
Sunlit
Object was in daylight at epoch
Visualization orbit readout
Latitude
Unknown
Longitude
Unknown
Altitude
Unknown
Speed
Unknown
Apparent Right ascension
Unknown
Apparent Declination
Unknown
Sunlit
N/A
Visualization observer readout
Local Sidereal Time
02:18:50
Azimuth
Unknown
Elevation
Unknown
Doppler factor
Unknown
Orbital elements
Apogee altitude
1,525.835 km
Perigee altitude
1,490.091 km
Semi-major axis
7,886.1 km
Eccentricity
0.00227
Inclination
101.7659°
RAAN
143.336°
Arg. of periapsis
262.0042°
True anomaly
252.08217°
Mean anomaly
252.3294°
Eccentric anomaly
252.20576°
Mean motion
3.0992 °/min
Orbital period
116.16 mins
BSTAR
0.00015896
Loading maneuver chart data...
Computing Atmospheric mass density...
Loading historical data...
Loading historical data...
Loading historical data...
Loading historical data...
Loading historical data...
Loading historical data...
Loading historical data...

Documentation

Showing up to 5 results
|